This is the latest recevied weather packets stored in our database for station/object K2BIG. If no packets are shown the sender has not sent any weather packets the latest 10 day(s).
| Time | Temp. | Humidity | Pressure | Rain* | Wind** | Luminosity | Snow |
|---|---|---|---|---|---|---|---|
| 1778009117 | 28.89° C | 36% | 1006.3 hPa | 0 mm | - | - | - |
| 1778008817 | 28.89° C | 37% | 1006.5 hPa | 0 mm | - | - | - |
| 1778008516 | 28.89° C | 36% | 1006.4 hPa | 0 mm | - | - | - |
| 1778008217 | 29.44° C | 37% | 1006.6 hPa | 0 mm | - | - | - |
| 1778007917 | 29.44° C | 37% | 1006.7 hPa | 0 mm | - | - | - |
| 1778007617 | 29.44° C | 40% | 1006.7 hPa | 0 mm | - | - | - |
| 1778007317 | 29.44° C | 38% | 1006.8 hPa | 0 mm | - | - | - |
| 1778007016 | 29.44° C | 39% | 1006.9 hPa | 0 mm | - | - | - |
| 1778006716 | 29.44° C | 38% | 1006.9 hPa | 0 mm | - | - | - |
| 1778006417 | 29.44° C | 39% | 1007 hPa | 0 mm | - | - | - |
| 1778006117 | 28.89° C | 38% | 1007.2 hPa | 0 mm | - | - | - |
| 1778005817 | 28.89° C | 39% | 1007.1 hPa | 0 mm | - | - | - |
| 1778005517 | 28.33° C | 41% | 1007.3 hPa | 0 mm | - | - | - |
| 1778005217 | 28.33° C | 38% | 1007.4 hPa | 0 mm | - | - | - |
| 1778004917 | 28.89° C | 38% | 1007.5 hPa | 0 mm | - | - | - |
| 1778004617 | 28.89° C | 40% | 1007.6 hPa | 0 mm | - | - | - |
| 1778004317 | 28.33° C | 40% | 1007.5 hPa | 0 mm | - | - | - |
| 1778004017 | 28.33° C | 40% | 1007.4 hPa | 0 mm | - | - | - |
| 1778003716 | 28.33° C | 40% | 1007.6 hPa | 0 mm | - | - | - |
| 1778003417 | 28.33° C | 41% | 1007.5 hPa | 0 mm | - | - | - |
| 1778003116 | 28.33° C | 45% | 1007.6 hPa | 0 mm | - | - | - |
| 1778002816 | 28.33° C | 44% | 1007.7 hPa | 0 mm | - | - | - |
| 1778002516 | 28.33° C | 43% | 1007.9 hPa | 0 mm | - | - | - |
| 1778002216 | 28.33° C | 45% | 1007.7 hPa | 0 mm | - | - | - |
| 1778001916 | 27.78° C | 46% | 1007.8 hPa | 0 mm | - | - | - |
* Rain latest hour (hover to see other rain measurements)
** Current wind speed in m/s (hover to see current wind gust speed)